FW0561 Weather Reports


Display with metric or nautical units.
time (UTC)temp
F
wind
direction
speed
MPH
gust
MPH
rain 1hr
in
rain 24hr
in
rain mn
in
humidity
%
barometer
mb
20260506175618 86 252 1.0 15.0 0.00 0.00 0.00 8 1020.8
20260506175018 85 196 2.0 17.0 0.00 0.00 0.00 8 1020.8
20260506174418 85 235 4.0 16.0 0.00 0.00 0.00 7 1020.6
20260506173818 86 222 2.0 16.0 0.00 0.00 0.00 7 1020.8
20260506173218 85 216 0.0 12.0 0.00 0.00 0.00 7 1020.8
20260506172618 85 231 2.0 14.0 0.00 0.00 0.00 8 1020.9
20260506172018 85 248 0.0 14.0 0.00 0.00 0.00 9 1021.0
20260506171419 83 145 0.0 6.0 0.00 0.00 0.00 9 1021.0
20260506170818 83 233 2.0 5.0 0.00 0.00 0.00 9 1021.2
20260506170218 83 116 4.0 15.0 0.00 0.00 0.00 9 1021.2
20260506165618 81 73 3.0 13.0 0.00 0.00 0.00 10 1021.2
20260506165017 82 56 3.0 7.0 0.00 0.00 0.00 10 1021.0
20260506164418 82 86 2.0 7.0 0.00 0.00 0.00 9 1021.2
20260506163818 82 114 0.0 7.0 0.00 0.00 0.00 9 1021.2
20260506163218 81 180 0.0 13.0 0.00 0.00 0.00 9 1021.2
20260506162618 81 147 6.0 11.0 0.00 0.00 0.00 11 1021.0
20260506162018 82 132 3.0 9.0 0.00 0.00 0.00 10 1021.2
20260506161430 82 130 0.0 6.0 0.00 0.00 0.00 9 1021.2
20260506160830 82 119 0.0 5.0 0.00 0.00 0.00 9 1021.2
20260506160218 81 271 0.0 7.0 0.00 0.00 0.00 10 1021.2
20260506155618 80 284 2.0 4.0 0.00 0.00 0.00 11 1021.2
20260506155018 79 305 0.0 4.0 0.00 0.00 0.00 11 1021.2
20260506154418 79 99 0.0 5.0 0.00 0.00 0.00 11 1021.3
20260506153830 78 184 0.0 6.0 0.00 0.00 0.00 12 1021.3
20260506153218 78 78 3.0 6.0 0.00 0.00 0.00 12 1021.3
20260506152618 77 237 0.0 3.0 0.00 0.00 0.00 13 1021.5
20260506152018 76 151 1.0 5.0 0.00 0.00 0.00 13 1021.5
20260506151418 76 52 0.0 7.0 0.00 0.00 0.00 13 1021.3
20260506150818 75 117 0.0 6.0 0.00 0.00 0.00 15 1021.5
20260506150218 74 111 1.0 5.0 0.00 0.00 0.00 13 1021.5
20260506145618 73 129 2.0 4.0 0.00 0.00 0.00 17 1021.5
20260506145030 72 60 0.0 4.0 0.00 0.00 0.00 16 1021.6
20260506144418 71 91 2.0 5.0 0.00 0.00 0.00 21 1021.6
20260506143818 70 90 0.0 5.0 0.00 0.00 0.00 23 1021.6
20260506143218 69 118 0.0 5.0 0.00 0.00 0.00 27 1021.8
20260506142618 68 109 0.0 5.0 0.00 0.00 0.00 25 1021.8
20260506142043 68 135 1.0 4.0 0.00 0.00 0.00 26 1021.7
20260506141418 67 252 0.0 3.0 0.00 0.00 0.00 25 1021.7
20260506140818 66 265 0.0 2.0 0.00 0.00 0.00 25 1021.7
20260506140218 64 337 0.0 4.0 0.00 0.00 0.00 31 1021.6
20260506135618 63 331 1.0 3.0 0.00 0.00 0.00 32 1021.6
20260506135018 62 296 0.0 3.0 0.00 0.00 0.00 35 1021.7
20260506134418 61 308 0.0 3.0 0.00 0.00 0.00 35 1021.7
20260506133818 61 284 0.0 3.0 0.00 0.00 0.00 35 1021.5
20260506133218 60 291 0.0 2.0 0.00 0.00 0.00 37 1021.5
20260506132630 58 289 0.0 3.0 0.00 0.00 0.00 38 1021.5
20260506132031 56 309 0.0 4.0 0.00 0.00 0.00 41 1021.4
20260506131418 54 294 0.0 3.0 0.00 0.00 0.00 46 1021.5
20260506130818 52 311 0.0 5.0 0.00 0.00 0.00 49 1021.3
20260506130218 50 280 0.0 1.0 0.00 0.00 0.00 55 1021.2
20260506125617 47 253 0.0 3.0 0.00 0.00 0.00 65 1021.1
20260506125018 45 274 0.0 3.0 0.00 0.00 0.00 64 1021.1
20260506124418 44 256 0.0 3.0 0.00 0.00 0.00 68 1021.1
20260506123818 43 225 0.0 3.0 0.00 0.00 0.00 77 1021.1
20260506123230 42 252 0.0 0.0 0.00 0.00 0.00 74 1021.1
20260506122618 42 279 0.0 0.0 0.00 0.00 0.00 72 1021.0
20260506122018 43 279 0.0 0.0 0.00 0.00 0.00 71 1020.9
20260506121418 45 279 0.0 0.0 0.00 0.00 0.00 67 1020.9
20260506120818 46 279 0.0 3.0 0.00 0.00 0.00 62 1020.9
20260506120218 47 277 0.0 7.0 0.00 0.00 0.00 56 1020.8
20260506115617 46 271 2.0 6.0 0.00 0.00 0.00 59 1020.8
20260506115017 46 293 2.0 6.0 0.00 0.00 0.00 60 1020.7
20260506114418 45 286 2.0 6.0 0.00 0.00 0.00 62 1020.7
20260506113817 45 281 2.0 5.0 0.00 0.00 0.00 63 1020.7
20260506113218 43 301 1.0 6.0 0.00 0.00 0.00 67 1020.7
20260506112617 43 311 0.0 4.0 0.00 0.00 0.00 69 1020.7
20260506112018 42 279 0.0 4.0 0.00 0.00 0.00 70 1020.7
20260506111417 44 318 0.0 3.0 0.00 0.00 0.00 65 1020.7
20260506110830 44 13 0.0 4.0 0.00 0.00 0.00 62 1020.7
20260506110217 43 276 2.0 4.0 0.00 0.00 0.00 68 1020.7
20260506105655 42 265 2.0 4.0 0.00 0.00 0.00 70 1020.5
20260506105017 43 251 0.0 4.0 0.00 0.00 0.00 72 1020.4
20260506104443 44 326 0.0 4.0 0.00 0.00 0.00 67 1020.4
20260506103818 45 132 0.0 3.0 0.00 0.00 0.00 63 1020.4
20260506103217 44 335 2.0 5.0 0.00 0.00 0.00 65 1020.4
20260506102618 43 291 0.0 6.0 0.00 0.00 0.00 69 1020.4
20260506102017 43 288 3.0 4.0 0.00 0.00 0.00 72 1020.3
20260506101418 44 15 0.0 0.0 0.00 0.00 0.00 68 1020.2
20260506100830 46 15 0.0 4.0 0.00 0.00 0.00 62 1020.1
20260506100218 47 265 2.0 7.0 0.00 0.00 0.00 57 1020.1
20260506095618 45 274 2.0 5.0 0.00 0.00 0.00 63 1020.0
20260506095042 45 273 1.0 3.0 0.00 0.00 0.00 65 1019.8
20260506094417 44 273 1.0 3.0 0.00 0.00 0.00 66 1019.7
20260506093817 44 271 1.0 4.0 0.00 0.00 0.00 71 1019.8
20260506093242 46 312 0.0 3.0 0.00 0.00 0.00 62 1019.6
20260506092617 46 313 1.0 4.0 0.00 0.00 0.00 59 1019.6
20260506092018 45 289 2.0 3.0 0.00 0.00 0.00 62 1019.6
20260506091418 43 300 0.0 3.0 0.00 0.00 0.00 68 1019.6
20260506090818 43 266 2.0 3.0 0.00 0.00 0.00 70 1019.6
20260506090217 43 248 0.0 3.0 0.00 0.00 0.00 72 1019.4
20260506085618 44 318 0.0 3.0 0.00 0.00 0.00 67 1019.4
20260506085018 43 297 0.0 3.0 0.00 0.00 0.00 69 1019.3
20260506084418 44 220 0.0 3.0 0.00 0.00 0.00 70 1019.4
20260506083830 44 296 1.0 3.0 0.00 0.00 0.00 71 1019.4
20260506083217 46 209 0.0 0.0 0.00 0.00 0.00 62 1019.3
20260506082643 47 191 0.0 0.0 0.00 0.00 0.00 59 1019.4
20260506082017 49 315 0.0 0.0 0.00 0.00 0.00 55 1019.4
20260506081417 51 322 0.0 3.0 0.00 0.00 0.00 50 1019.5
20260506080818 52 254 0.0 4.0 0.00 0.00 0.00 44 1019.4
20260506080218 51 321 0.0 4.0 0.00 0.00 0.00 47 1019.4
20260506073217 53 313 1.0 4.0 0.00 0.00 0.00 39 1019.6
20260506072618 53 323 2.0 4.0 0.00 0.00 0.00 41 1019.6
20260506072018 54 302 0.0 5.0 0.00 0.00 0.00 39 1019.5
20260506071418 55 318 0.0 4.0 0.00 0.00 0.00 36 1019.5
20260506070818 54 306 1.0 8.0 0.00 0.00 0.00 36 1019.5
20260506070218 54 293 4.0 7.0 0.00 0.00 0.00 41 1019.5
20260506062017 55 279 3.0 6.0 0.00 0.00 0.00 39 1019.8
20260506061430 54 306 2.0 6.0 0.00 0.00 0.00 39 1019.7
20260506060830 56 284 0.0 3.0 0.00 0.00 0.00 34 1019.8
20260506060217 57 278 1.0 6.0 0.00 0.00 0.00 34 1019.8
20260506050818 54 299 3.0 6.0 0.00 0.00 0.00 46 1019.6
20260506050230 54 304 2.0 3.0 0.00 0.00 0.00 45 1019.8
20260506045017 56 286 0.0 3.0 0.00 0.00 0.00 42 1019.6
20260506044417 55 279 1.0 3.0 0.00 0.00 0.00 37 1019.5
20260506043830 53 289 1.0 4.0 0.00 0.00 0.00 44 1019.5
20260506043218 52 308 2.0 3.0 0.00 0.00 0.00 53 1019.5
20260506042617 54 297 2.0 3.0 0.00 0.00 0.00 44 1019.5
20260506042018 56 297 2.0 2.0 0.00 0.00 0.00 34 1019.3
20260506041417 56 289 0.0 3.0 0.00 0.00 0.00 39 1019.3
20260506040817 55 288 2.0 4.0 0.00 0.00 0.00 47 1019.2
20260506040219 57 144 0.0 4.0 0.00 0.00 0.00 41 1019.2
20260506035617 57 144 0.0 4.0 0.00 0.00 0.00 40 1019.2
20260506035017 57 317 0.0 2.0 0.00 0.00 0.00 47 1019.0
20260506034418 59 230 0.0 2.0 0.00 0.00 0.00 41 1018.9
20260506033817 62 230 0.0 2.0 0.00 0.00 0.00 31 1018.9
20260506033218 64 164 0.0 2.0 0.00 0.00 0.00 27 1018.8
20260506032618 67 164 0.0 4.0 0.00 0.00 0.00 25 1018.6
20260506032030 70 328 2.0 6.0 0.00 0.00 0.00 23 1018.6
20260506031417 70 316 2.0 7.0 0.00 0.00 0.00 22 1018.5
20260506030818 71 316 2.0 7.0 0.00 0.00 0.00 20 1018.4
20260506030218 72 309 3.0 8.0 0.00 0.00 0.00 20 1018.4
20260506025617 73 303 4.0 9.0 0.00 0.00 0.00 19 1018.4
20260506025017 73 327 3.0 10.0 0.00 0.00 0.00 19 1018.4
20260506024443 73 334 3.0 11.0 0.00 0.00 0.00 19 1018.2
20260506023818 74 331 2.0 9.0 0.00 0.00 0.00 18 1018.1
20260506023218 74 314 2.0 11.0 0.00 0.00 0.00 18 1018.1
20260506022617 73 350 2.0 9.0 0.00 0.00 0.00 18 1018.1
20260506022018 73 303 4.0 9.0 0.00 0.00 0.00 21 1018.0
20260506021417 73 285 2.0 7.0 0.00 0.00 0.00 20 1017.9
20260506020818 74 318 3.0 9.0 0.00 0.00 0.00 19 1017.9
20260506020217 75 331 3.0 8.0 0.00 0.00 0.00 18 1017.8
20260506015618 76 350 2.0 11.0 0.00 0.00 0.00 18 1017.7
20260506015030 77 328 4.0 11.0 0.00 0.00 0.00 17 1017.6
20260506014418 77 338 3.0 12.0 0.00 0.00 0.00 16 1017.6
20260506013817 77 321 3.0 10.0 0.00 0.00 0.00 16 1017.5
20260506013217 77 313 1.0 9.0 0.00 0.00 0.00 17 1017.4
20260506012618 77 330 3.0 9.0 0.00 0.00 0.00 16 1017.3
20260506012017 78 319 4.0 14.0 0.00 0.00 0.00 16 1017.2
20260506011430 78 337 2.0 12.0 0.00 0.00 0.00 17 1017.2
20260506010817 79 326 4.0 12.0 0.00 0.00 0.00 17 1017.1
20260506010217 79 319 3.0 11.0 0.00 0.00 0.00 16 1017.0
20260506005617 79 6 3.0 7.0 0.00 0.00 0.00 16 1017.0
20260506005018 80 298 2.0 8.0 0.00 0.00 0.00 15 1017.0
20260506004430 80 312 3.0 8.0 0.00 0.00 0.00 15 1017.0
20260506003817 82 304 2.0 7.0 0.00 0.00 0.00 15 1017.0
20260506003217 83 271 1.0 10.0 0.00 0.00 0.00 13 1016.9
20260506002617 85 292 2.0 9.0 0.00 0.00 0.00 7 1016.9
20260506002018 86 241 3.0 8.0 0.00 0.00 0.00 7 1016.9
20260506001417 87 233 2.0 10.0 0.00 0.00 0.00 6 1016.9
20260506000817 87 280 0.0 8.0 0.00 0.00 0.00 6 1016.9
20260506000219 88 262 3.0 9.0 0.00 0.00 0.00 7 1016.8
20260505235618 88 238 2.0 11.0 0.00 0.00 0.00 5 1016.7
20260505235018 88 263 0.0 8.0 0.00 0.00 0.00 7 1016.7
20260505234430 88 218 2.0 9.0 0.00 0.00 0.00 6 1016.7
20260505233817 88 146 0.0 11.0 0.00 0.00 0.00 6 1016.8
20260505233218 89 263 4.0 14.0 0.00 0.00 0.00 6 1016.7
20260505232617 89 301 3.0 12.0 0.00 0.00 0.00 8 1016.7
20260505232030 89 262 3.0 16.0 0.00 0.00 0.00 8 1016.7
20260505231418 90 256 2.0 9.0 0.00 0.00 0.00 6 1016.7
20260505230818 89 192 3.0 17.0 0.00 0.00 0.00 6 1016.8
20260505230217 90 266 1.0 13.0 0.00 0.00 0.00 7 1016.7
20260505225630 90 196 2.0 13.0 0.00 0.00 0.00 7 1016.8
20260505225030 90 285 4.0 15.0 0.00 0.00 0.00 8 1016.7
20260505224417 91 222 0.0 9.0 0.00 0.00 0.00 7 1016.8
20260505223818 91 218 2.0 10.0 0.00 0.00 0.00 7 1016.9
20260505223244 90 292 2.0 11.0 0.00 0.00 0.00 7 1016.9
20260505222630 90 176 2.0 15.0 0.00 0.00 0.00 6 1016.9
20260505222017 90 175 2.0 17.0 0.00 0.00 0.00 7 1017.1
20260505221508 90 298 5.0 16.0 0.00 0.00 0.00 9 1016.9
20260505220830 91 137 2.0 12.0 0.00 0.00 0.00 7 1017.1
20260505220218 90 222 2.0 14.0 0.00 0.00 0.00 7 1017.1
20260505215617 90 197 3.0 13.0 0.00 0.00 0.00 8 1017.2
20260505215017 89 190 3.0 14.0 0.00 0.00 0.00 9 1017.2
20260505214417 89 216 1.0 9.0 0.00 0.00 0.00 9 1017.3
20260505213817 90 232 2.0 11.0 0.00 0.00 0.00 9 1017.5
20260505213218 89 230 2.0 14.0 0.00 0.00 0.00 10 1017.5
20260505212618 89 228 0.0 19.0 0.00 0.00 0.00 9 1017.6
20260505212017 90 232 2.0 12.0 0.00 0.00 0.00 10 1017.7
20260505211418 89 250 3.0 13.0 0.00 0.00 0.00 11 1017.7
20260505210842 88 166 6.0 17.0 0.00 0.00 0.00 10 1017.7
20260505210218 89 144 3.0 15.0 0.00 0.00 0.00 11 1018.0
20260505205617 88 176 2.0 15.0 0.00 0.00 0.00 10 1018.1
20260505205018 89 222 3.0 13.0 0.00 0.00 0.00 11 1018.1
20260505204417 89 242 1.0 16.0 0.00 0.00 0.00 11 1018.1
20260505203817 89 239 6.0 13.0 0.00 0.00 0.00 11 1018.4
20260505203218 89 198 3.0 17.0 0.00 0.00 0.00 11 1018.4
20260505202618 88 250 2.0 14.0 0.00 0.00 0.00 12 1018.6
20260505202017 90 164 0.0 13.0 0.00 0.00 0.00 12 1018.6
20260505201417 89 153 0.0 13.0 0.00 0.00 0.00 10 1018.7
20260505200817 88 237 1.0 15.0 0.00 0.00 0.00 12 1018.8
20260505200218 89 222 2.0 15.0 0.00 0.00 0.00 14 1019.0
20260505195618 89 298 4.0 15.0 0.00 0.00 0.00 13 1019.0
20260505195017 87 230 5.0 15.0 0.00 0.00 0.00 14 1019.1
20260505194430 87 184 1.0 14.0 0.00 0.00 0.00 13 1019.1
20260505193818 87 228 2.0 16.0 0.00 0.00 0.00 13 1019.1
20260505193218 87 262 3.0 9.0 0.00 0.00 0.00 12 1019.1
20260505192618 88 178 1.0 11.0 0.00 0.00 0.00 11 1019.2
20260505192017 87 266 2.0 12.0 0.00 0.00 0.00 13 1019.4
20260505191417 87 233 2.0 15.0 0.00 0.00 0.00 13 1019.4
20260505190817 88 232 2.0 21.0 0.00 0.00 0.00 13 1019.4
20260505190218 87 174 1.0 13.0 0.00 0.00 0.00 12 1019.5
20260505185618 86 233 3.0 12.0 0.00 0.00 0.00 17 1019.5
20260505185018 86 215 0.0 15.0 0.00 0.00 0.00 17 1019.6
20260505184417 85 194 1.0 13.0 0.00 0.00 0.00 19 1019.7
20260505183817 85 221 4.0 18.0 0.00 0.00 0.00 17 1019.8
20260505183217 86 251 2.0 15.0 0.00 0.00 0.00 18 1019.8
20260505182617 86 244 6.0 11.0 0.00 0.00 0.00 18 1019.8
20260505182017 86 153 0.0 11.0 0.00 0.00 0.00 18 1019.8
20260505181418 85 201 0.0 9.0 0.00 0.00 0.00 20 1019.9
20260505180830 85 163 0.0 9.0 0.00 0.00 0.00 19 1019.9
20260505180218 85 237 3.0 9.0 0.00 0.00 0.00 20 1019.9